Home > Time Zones > World Clock > Weather > U.S.A. > Napa > Past weeks

Flag for U.S.A. Weather past 2 weeks in Napa, California, U.S.A.

Now
55 °F

Overcast.


Feels Like: 52 °F
Forecast: 49 / 74 °F
Wind: 10 mph from West

Location: Napa County Airport

Current Time: May 26, 2015 at 11:43:07 PM

Latest Report: May 26, 2015 at 10:54 PM


Visibility: 10 mi

Pressure: 29.98 "Hg

Humidity: 83%

Dew point: 50 °F

Location of NapaLocation

Historic Weather in Napa — Graph

°F

Napa temperature yesterday

Maximum temperature yesterday: 66 °F (at 2:54 PM)
Minimum temperature yesterday: 51 °F (at 4:54 AM)
Average temperature yesterday: 56 °F

Past Weeks' High & Low Weather Summary

 TemperatureHumidityPressure
High69 °F (May 22, 2:54 PM)97% (May 15, 1:54 AM)30.09 "Hg (May 15, 1:54 AM)
Low44 °F (May 13, 3:54 AM)34% (May 12, 11:54 AM)29.75 "Hg (May 14, 4:54 PM)
Average56 °F76%29.93 "Hg
* Reported May 11 9:54 PM — May 26 9:54 PM, Napa, Weather by CustomWeather, © 2015

Note: Actual official high and low records may vary slightly from our data, if they occured in-between our weather recording intervals... More about our weather records

Advertising

Napa weather history for previous 24 hours

 ConditionsComfort  
Time TempWeatherWind HumidityBarometerVisibility
9:54 PM
Tue, May 26
55 °FOvercast.12 mph83%29.96 "Hg10 mi
8:54 PM54 °FSunny.15 mph86%29.94 "Hg10 mi
7:54 PM56 °FSunny.13 mph81%29.93 "Hg10 mi
6:54 PM60 °FSunny.16 mph69%29.93 "Hg10 mi
5:54 PM64 °FSunny.16 mph61%29.93 "Hg10 mi
4:54 PM67 °FSunny.14 mph57%29.93 "Hg10 mi
3:54 PM67 °FSunny.18 mph61%29.93 "Hg10 mi
2:54 PM67 °FSunny.16 mph59%29.94 "Hg10 mi
1:54 PM66 °FSunny.14 mph59%29.95 "Hg10 mi
1:01 PM64 °FSunny.14 mph61%29.99 "Hg10 mi
11:54 AM61 °FPartly sunny.8 mph65%29.98 "Hg10 mi
10:54 AM57 °FOvercast.8 mph74%29.98 "Hg10 mi
9:54 AM55 °FOvercast.9 mph77%29.98 "Hg10 mi
8:54 AM54 °FOvercast.8 mph80%29.98 "Hg10 mi
7:54 AM53 °FOvercast.8 mph86%29.97 "Hg10 mi
6:54 AM51 °FOvercast.8 mph92%29.96 "Hg10 mi
5:54 AM51 °FOvercast.7 mph92%29.95 "Hg10 mi
4:54 AM51 °FOvercast.7 mph92%29.94 "Hg10 mi
3:54 AM51 °FOvercast.8 mph92%29.94 "Hg10 mi
2:54 AM51 °FOvercast.10 mph89%29.95 "Hg10 mi
1:54 AM52 °FOvercast.10 mph86%29.95 "Hg10 mi
12:54 AM52 °FLow clouds.10 mph89%29.96 "Hg10 mi
11:54 PM
Mon, May 25
52 °FLow clouds.13 mph86%29.96 "Hg10 mi
Weather by CustomWeather, © 2015

See weather overviewHow to use our weather pages